Date,TemperatureHighF,TemperatureAvgF,TemperatureLowF,DewpointHighF,DewpointAvgF,DewpointLowF,HumidityHigh,HumidityAvg,HumidityLow,PressureMaxIn,PressureMinIn,WindSpeedMaxMPH,WindSpeedAvgMPH,GustSpeedMaxMPH,PrecipitationSumIn
2012-1-1,55,46,40,44,41,38,94,82,67,0.00,40.00,7,5,17,0.01
2012-1-2,55,48,41,52,47,39,100,94,74,0.00,40.00,23,10,47,0.10
2012-1-3,58,50,45,53,49,44,100,95,80,0.00,40.00,10,5,21,0.07
2012-1-4,57,50,44,53,47,41,100,90,63,0.00,40.00,18,10,35,0.37
2012-1-5,51,46,37,51,45,37,100,98,79,0.00,40.00,11,3,20,0.13
2012-1-6,46,40,34,44,40,34,100,98,87,0.00,40.00,3,1,11,0.02
2012-1-7,53,44,40,49,43,40,100,97,85,0.00,40.00,5,1,13,0.02
2012-1-8,59,46,39,46,42,39,100,90,60,0.00,40.00,7,4,16,0.00
2012-1-9,54,45,38,48,44,38,100,97,78,0.00,40.00,12,3,27,0.01
2012-1-10,49,42,31,45,39,31,100,92,71,0.00,40.00,7,2,16,0.12
2012-1-11,52,40,32,36,32,27,100,74,47,0.00,40.00,6,3,15,0.01
2012-1-12,52,41,34,28,25,21,66,53,39,0.00,40.00,8,4,17,0.00
2012-1-13,60,44,34,40,31,25,100,64,37,0.00,40.00,9,2,15,0.00
2012-1-14,49,44,35,48,41,32,100,91,71,0.00,40.00,13,7,24,0.08
2012-1-15,45,36,32,42,35,32,100,95,73,0.00,40.00,9,3,24,0.18
2012-1-16,40,35,32,40,35,32,100,100,100,0.00,40.00,12,7,19,0.18
2012-1-17,47,43,36,46,43,36,100,99,91,0.00,40.00,19,13,37,1.34
2012-1-18,51,48,42,51,48,42,100,100,100,0.00,40.00,34,25,64,2.34
2012-1-19,52,50,49,52,50,49,100,100,100,0.00,40.00,30,16,52,2.12
2012-1-20,56,51,48,56,51,48,100,100,100,0.00,40.00,24,12,50,0.90
2012-1-21,50,45,42,48,43,38,100,92,74,0.00,40.00,8,5,30,0.53
2012-1-22,51,45,39,49,42,36,100,91,71,0.00,40.00,26,8,52,0.31
2012-1-23,52,43,37,46,42,37,100,95,74,0.00,40.00,4,1,9,0.05
2012-1-24,52,48,43,52,48,43,100,100,95,0.00,40.00,26,17,50,0.42
2012-1-25,54,51,49,54,51,49,100,100,100,0.00,40.00,15,7,29,0.26
2012-1-26,51,45,35,51,42,35,100,91,68,0.00,40.00,10,5,25,0.33
2012-1-27,52,40,30,38,35,30,100,83,54,0.00,40.00,6,2,16,0.01
2012-1-28,60,44,35,42,37,32,100,77,45,0.00,40.00,6,3,15,0.00
2012-1-29,50,46,39,50,45,39,100,97,82,0.00,40.00,18,8,33,0.79
2012-1-30,51,47,44,49,47,44,100,97,86,0.00,40.00,7,1,10,0.35
2012-1-31,52,46,43,47,45,43,100,94,75,0.00,40.00,7,1,13,0.38
2012-2-1,53,46,39,46,44,39,100,91,61,0.00,40.00,7,2,17,0.44
2012-2-2,57,47,40,42,40,36,100,79,46,0.00,40.00,8,4,16,0.01
2012-2-3,60,48,42,50,39,31,100,71,46,0.00,40.00,9,4,19,0.00
2012-2-4,62,48,39,44,39,33,100,74,43,0.00,40.00,6,3,15,0.00
2012-2-5,61,49,41,41,38,35,87,68,45,0.00,40.00,6,4,14,0.00
2012-2-6,61,51,43,37,35,32,69,56,39,0.00,40.00,7,5,16,0.00
2012-2-7,55,50,45,52,39,31,100,69,48,0.00,40.00,8,3,15,0.03
2012-2-8,53,49,43,53,49,43,100,100,100,0.00,40.00,5,2,12,0.73
2012-2-9,58,52,49,54,51,48,100,95,78,0.00,40.00,10,2,17,0.15
2012-2-10,54,49,44,53,48,44,100,97,76,0.00,40.00,14,5,28,0.47
2012-2-11,52,44,34,46,42,34,100,94,74,0.00,40.00,7,1,12,0.01
2012-2-12,45,40,34,45,39,34,100,99,94,0.00,40.00,6,1,17,0.28
2012-2-13,49,44,40,49,43,40,100,97,84,0.00,40.00,10,4,21,0.29
2012-2-14,50,42,34,43,39,34,100,93,67,0.00,40.00,11,4,25,0.13
2012-2-15,55,39,32,43,37,32,100,92,61,0.00,40.00,4,1,10,0.01
2012-2-16,48,43,37,48,43,37,100,99,97,0.00,40.00,7,2,13,0.06
2012-2-17,50,48,45,50,48,42,100,99,90,0.00,40.00,16,7,33,0.26
2012-2-18,50,44,37,45,40,36,100,86,71,0.00,40.00,9,4,22,0.10
2012-2-19,52,43,36,42,38,35,100,85,54,0.00,40.00,7,4,17,0.22
2012-2-20,50,48,40,50,48,40,100,100,100,0.00,40.00,12,7,22,0.85
2012-2-21,51,50,48,51,50,48,100,100,100,0.00,40.00,11,8,21,0.76
2012-2-22,53,48,41,53,48,40,100,97,88,0.00,40.00,11,7,23,0.68
2012-2-23,52,43,36,46,40,36,100,91,62,0.00,40.00,8,2,15,0.03
2012-2-24,52,43,36,46,40,34,100,91,56,0.00,40.00,17,8,33,0.31
2012-2-25,48,43,38,41,36,28,97,76,60,0.00,40.00,16,9,33,0.14
2012-2-26,46,40,35,42,38,34,100,94,80,0.00,40.00,9,3,19,0.04
2012-2-27,47,39,32,40,36,32,100,89,64,0.00,40.00,7,2,13,0.02
2012-2-28,43,39,35,43,38,35,100,96,78,0.00,40.00,23,8,44,1.02
2012-2-29,47,42,38,42,39,34,100,90,69,0.00,40.00,13,8,37,0.38
2012-3-1,51,43,34,44,40,34,100,89,66,0.00,40.00,11,4,23,0.25
2012-3-2,52,42,33,44,39,33,100,91,68,0.00,40.00,7,2,11,0.03
2012-3-3,61,47,41,51,46,41,100,95,70,0.00,40.00,8,2,13,0.01
2012-3-4,59,46,39,51,45,39,100,94,76,0.00,40.00,11,4,19,0.00
2012-3-5,47,43,37,47,43,37,100,100,93,0.00,40.00,18,8,35,0.46
2012-3-6,45,39,33,39,34,29,100,86,61,0.00,40.00,11,5,30,0.20
2012-3-7,52,40,29,40,35,29,100,82,50,0.00,40.00,7,2,18,0.03
2012-3-8,60,48,42,50,42,33,100,81,53,0.00,40.00,13,6,29,0.00
2012-3-9,54,49,46,47,45,43,97,87,69,0.00,40.00,12,8,22,0.00
2012-3-10,51,47,44,48,44,-100,100,95,80,0.00,40.00,15,8,29,0.51
2012-3-11,49,45,40,45,41,37,100,86,67,0.00,40.00,14,9,34,0.78
2012-3-12,50,44,32,48,42,32,100,92,71,0.00,40.00,22,14,43,1.53
2012-3-13,50,39,32,42,37,32,100,91,58,0.00,40.00,10,5,28,2.38
2012-3-14,49,45,39,49,45,39,100,99,96,0.00,40.00,15,9,28,0.91
2012-3-15,54,51,48,53,51,48,100,100,97,0.00,40.00,24,16,48,1.56
2012-3-16,56,47,43,49,46,43,100,95,65,0.00,40.00,12,4,24,0.96
2012-3-17,50,44,37,44,41,37,100,90,68,0.00,40.00,10,4,21,0.99
2012-3-18,48,40,35,42,36,32,100,88,57,0.00,40.00,11,4,23,0.38
2012-3-19,45,40,35,45,40,33,100,98,88,0.00,40.00,12,6,19,0.17
2012-3-20,49,45,40,49,44,-100,100,99,98,0.00,40.00,24,9,44,0.88
2012-3-21,40,36,33,40,36,33,100,100,100,0.00,40.00,5,2,13,2.42
2012-3-22,48,40,35,45,39,35,100,94,77,0.00,40.00,7,4,16,0.57
2012-3-23,60,45,34,41,38,34,100,79,44,0.00,40.00,6,2,19,0.01
2012-3-24,51,45,39,46,42,37,100,89,72,0.00,40.00,8,2,19,0.01
2012-3-25,46,43,39,46,43,39,100,100,100,0.00,40.00,4,1,11,0.38
2012-3-26,55,44,34,48,42,34,100,93,64,0.00,40.00,10,4,21,0.13
2012-3-27,53,48,44,52,47,44,100,99,94,0.00,40.00,19,7,29,0.87
2012-3-28,52,47,43,49,45,42,100,96,83,0.00,40.00,19,13,38,0.94
2012-3-29,53,50,46,53,50,46,100,99,97,0.00,40.00,26,18,49,1.07
2012-3-30,52,46,39,52,46,39,100,100,100,0.00,40.00,24,8,45,2.02
2012-3-31,52,46,41,50,45,41,100,96,80,0.00,40.00,19,8,37,1.68
2012-4-1,54,46,41,50,44,39,100,92,78,0.00,40.00,15,7,35,0.90
2012-4-2,59,49,40,46,43,40,100,83,62,0.00,40.00,12,6,23,0.04
2012-4-3,52,46,40,46,43,40,100,89,71,0.00,40.00,12,4,21,0.67
2012-4-4,51,44,39,44,41,38,100,89,69,0.00,40.00,8,4,18,0.56
2012-4-5,50,42,34,42,38,34,100,90,68,0.00,40.00,7,3,14,0.32
2012-4-6,52,42,34,44,38,34,100,88,63,0.00,40.00,6,2,13,0.08
2012-4-7,61,48,38,45,40,37,100,76,47,0.00,40.00,5,3,16,0.01
2012-4-8,64,51,47,51,46,39,100,84,60,0.00,40.00,6,2,16,0.02
2012-4-9,56,51,44,52,49,44,100,92,75,0.00,40.00,4,1,12,0.01
2012-4-10,55,50,46,53,49,46,100,99,94,0.00,40.00,5,2,17,0.04
2012-4-11,56,50,46,51,48,46,100,95,82,0.00,40.00,10,4,20,0.05
2012-4-12,54,48,44,47,45,39,100,91,67,0.00,40.00,15,7,30,0.24
2012-4-13,52,47,42,48,45,42,100,93,80,0.00,40.00,9,3,15,0.22
2012-4-14,54,48,41,48,44,-100,100,89,75,0.00,40.00,8,4,16,0.00
2012-4-15,57,47,39,50,46,39,100,94,76,0.00,40.00,11,4,22,0.37
2012-4-16,55,50,43,53,50,43,100,97,87,0.00,40.00,16,7,32,1.08
2012-4-17,55,46,40,51,45,40,100,96,69,0.00,40.00,11,4,25,0.08
2012-4-18,57,51,47,50,48,45,100,91,70,0.00,40.00,13,4,25,0.15
2012-4-19,54,51,47,54,51,47,100,100,100,0.00,40.00,16,7,30,0.68
2012-4-20,64,54,46,59,53,46,100,97,79,0.00,40.00,10,5,19,0.16
2012-4-21,63,54,46,58,52,46,100,95,80,0.00,40.00,8,2,13,0.01
2012-4-22,63,54,48,58,52,48,100,93,77,0.00,40.00,13,5,24,0.00
2012-4-23,54,52,50,54,52,50,100,100,100,0.00,40.00,7,2,17,0.00
2012-4-24,59,53,50,59,53,50,100,100,100,0.00,40.00,13,5,24,0.04
2012-4-25,54,53,50,54,53,50,100,100,100,0.00,40.00,15,10,28,0.88
2012-4-26,53,49,44,51,46,41,100,90,73,0.00,40.00,12,6,29,0.68
2012-4-27,54,50,43,50,47,43,100,92,78,0.00,40.00,9,5,18,0.23
2012-4-28,59,52,46,54,48,-100,100,93,72,0.00,40.00,8,4,17,0.01
2012-4-29,60,52,48,55,51,48,100,96,81,0.00,40.00,9,4,16,0.00
2012-4-30,52,50,46,52,49,42,100,97,84,0.00,40.00,14,6,26,0.39
2012-5-1,52,46,41,48,44,41,100,94,77,0.00,40.00,7,2,14,0.22
2012-5-2,53,46,39,47,44,39,100,92,70,0.00,40.00,5,2,11,0.30
2012-5-3,53,50,45,53,49,43,100,97,86,0.00,40.00,23,7,44,1.20
2012-5-4,55,48,42,48,44,39,100,87,70,0.00,40.00,8,4,16,0.12
2012-5-5,56,46,36,49,41,-100,100,88,61,0.00,40.00,13,5,24,0.01
2012-5-6,58,50,41,52,47,41,100,90,68,0.00,40.00,15,6,27,0.00
2012-5-7,64,53,45,56,51,45,100,92,67,0.00,40.00,11,6,23,0.00
2012-5-8,58,52,48,54,51,45,100,95,86,0.00,40.00,16,10,30,0.00
2012-5-9,54,49,42,46,41,33,94,74,60,0.00,40.00,20,12,38,0.00
2012-5-10,55,47,36,46,40,33,100,79,48,0.00,40.00,22,9,40,0.00
2012-5-11,59,49,37,49,44,37,100,84,55,0.00,40.00,15,6,27,0.00
2012-5-12,68,53,42,52,44,-100,100,80,44,0.00,40.00,9,3,19,0.00
2012-5-13,63,52,42,55,49,42,100,90,71,0.00,40.00,14,6,25,0.00
2012-5-14,59,53,49,53,51,49,100,93,76,0.00,40.00,10,7,21,0.00
2012-5-15,58,54,49,55,52,49,100,94,84,0.00,40.00,12,5,26,0.00
2012-5-16,56,50,44,53,48,44,100,93,84,0.00,40.00,18,10,37,0.00
2012-5-17,57,50,40,48,45,40,100,84,65,0.00,40.00,16,9,29,0.00
2012-5-18,57,49,38,47,43,38,100,82,64,0.00,40.00,15,6,29,0.00
2012-5-19,61,50,37,51,44,-100,100,84,61,0.00,40.00,6,2,12,0.00
2012-5-20,62,54,51,57,51,41,100,88,66,0.00,40.00,7,3,15,0.00
2012-5-21,56,54,51,56,54,51,100,100,100,0.00,40.00,17,8,32,0.48
2012-5-22,56,51,49,55,50,49,100,98,85,0.00,40.00,17,9,33,0.29
2012-5-23,54,51,48,54,51,48,100,100,96,0.00,40.00,10,5,17,0.09
2012-5-24,55,50,47,53,50,47,100,98,88,0.00,40.00,8,4,15,0.64
2012-5-25,58,53,47,56,52,47,100,97,87,0.00,40.00,15,8,28,0.04
2012-5-26,58,54,50,55,52,50,100,97,88,0.00,40.00,5,1,10,0.00
2012-5-27,57,53,50,53,51,49,100,95,81,0.00,40.00,8,5,16,0.03
2012-5-28,58,53,48,54,50,47,100,90,74,0.00,40.00,10,4,17,0.10
2012-5-29,59,51,40,51,47,40,100,87,68,0.00,40.00,13,5,21,0.01
2012-5-30,61,52,41,53,49,41,100,88,70,0.00,40.00,8,3,15,0.00
2012-5-31,66,57,48,61,54,48,100,91,56,0.00,40.00,6,2,11,0.00
2012-6-1,67,58,53,64,57,53,100,97,86,0.00,40.00,5,2,12,0.04
2012-6-2,61,55,51,57,52,-100,100,94,79,0.00,40.00,12,5,19,0.08
2012-6-3,61,53,46,52,49,46,100,86,66,0.00,40.00,10,3,19,0.10
2012-6-4,60,51,46,60,51,46,100,100,99,0.00,40.00,15,4,29,0.72
2012-6-5,58,51,44,52,48,44,100,90,69,0.00,40.00,7,2,14,0.33
2012-6-6,61,52,40,53,47,40,100,84,58,0.00,40.00,7,3,15,0.03
2012-6-7,60,54,48,56,52,48,100,94,72,0.00,40.00,13,7,37,0.32
2012-6-8,57,51,48,53,50,47,100,94,78,0.00,40.00,8,5,19,0.28
2012-6-9,60,53,46,53,50,46,100,89,73,0.00,40.00,10,4,19,0.21
2012-6-10,61,54,43,54,49,43,100,87,67,0.00,40.00,14,6,25,0.01
2012-6-11,64,55,45,56,50,45,100,85,60,0.00,40.00,8,2,14,0.00
2012-6-12,60,57,53,57,55,52,98,94,86,0.00,40.00,7,3,13,0.09
2012-6-13,60,56,51,54,49,45,97,79,64,0.00,40.00,18,11,31,0.01
2012-6-14,59,53,44,51,46,43,97,78,65,0.00,40.00,16,8,26,0.00
2012-6-15,63,54,45,53,49,43,96,82,62,0.00,40.00,12,6,23,0.00
2012-6-16,66,55,50,59,51,-100,97,90,75,0.00,40.00,5,2,12,0.00
2012-6-17,62,58,53,57,55,50,98,91,76,0.00,40.00,8,4,15,0.02
2012-6-18,60,54,48,52,49,46,94,85,71,0.00,40.00,8,2,18,0.07
2012-6-19,61,54,45,53,49,44,96,85,66,0.00,40.00,9,4,17,0.08
2012-6-20,62,56,48,54,51,47,96,84,71,0.00,40.00,11,6,21,0.07
2012-6-21,64,56,47,54,51,46,96,82,70,0.00,40.00,12,4,19,0.00
2012-6-22,57,54,50,53,51,48,95,90,83,0.00,40.00,11,6,21,0.47
2012-6-23,64,54,48,50,48,44,95,82,57,0.00,40.00,7,4,15,0.41
2012-6-24,64,56,48,50,48,45,95,77,56,0.00,40.00,7,2,14,0.07
2012-6-25,63,55,50,54,50,47,93,82,62,0.00,40.00,7,2,13,0.04
2012-6-26,65,57,51,54,51,49,95,80,60,0.00,40.00,6,2,13,0.70
2012-6-27,67,58,48,54,51,47,96,79,60,0.00,40.00,10,4,16,0.01
2012-6-28,63,58,51,55,53,49,95,84,63,0.00,40.00,10,6,21,0.02
2012-6-29,66,62,57,58,55,54,91,80,70,0.00,40.00,7,4,15,0.02
2012-6-30,63,60,59,59,58,55,96,91,83,0.00,40.00,3,1,9,0.37
2012-7-1,65,60,56,59,54,50,96,81,69,0.00,40.00,13,8,25,0.04
2012-7-2,65,59,54,52,50,49,91,73,58,0.00,40.00,7,5,16,0.00
2012-7-3,63,58,52,54,49,44,95,75,58,0.00,40.00,12,7,24,0.25
2012-7-4,63,55,46,51,48,44,95,80,59,0.00,40.00,14,6,26,0.05
2012-7-5,64,56,46,55,50,45,96,83,68,0.00,40.00,12,5,20,0.00
2012-7-6,64,58,50,53,50,48,94,78,61,0.00,40.00,12,6,25,0.00
2012-7-7,63,57,48,55,52,46,95,83,71,0.00,40.00,15,8,36,0.00
2012-7-8,63,57,52,55,52,50,94,86,75,0.00,40.00,14,7,30,0.00
2012-7-9,62,58,53,53,52,49,91,80,69,0.00,40.00,12,8,21,0.00
2012-7-10,63,57,51,53,51,49,95,81,67,0.00,40.00,15,9,29,0.00
2012-7-11,59,55,51,55,52,50,96,91,81,0.00,40.00,16,7,31,0.00
2012-7-12,64,58,52,55,52,49,91,81,68,0.00,40.00,10,7,22,0.00
2012-7-13,66,57,48,55,52,47,95,81,66,0.00,40.00,14,7,25,0.00
2012-7-14,65,58,53,57,54,49,94,85,72,0.00,40.00,7,2,15,0.00
2012-7-15,64,58,54,58,54,52,96,87,69,0.00,40.00,10,5,19,0.03
2012-7-16,66,58,53,59,54,51,95,86,71,0.00,40.00,6,2,12,0.02
2012-7-17,62,57,53,58,55,51,95,92,85,0.00,40.00,9,4,18,0.02
2012-7-18,63,59,55,58,55,53,95,89,76,0.00,40.00,7,3,12,0.02
2012-7-19,66,60,52,59,55,50,95,86,70,0.00,40.00,10,3,19,0.08
2012-7-20,66,59,55,56,55,53,95,85,69,0.00,40.00,10,5,16,0.13
2012-7-21,67,59,52,59,55,51,96,85,70,0.00,40.00,12,5,23,0.01
2012-7-22,66,60,55,55,52,49,88,76,63,0.00,40.00,13,6,22,0.00
2012-7-23,68,58,48,54,50,46,93,76,50,0.00,40.00,22,10,37,0.00
2012-7-24,63,57,48,55,52,46,95,83,68,0.00,40.00,15,8,28,0.00
2012-7-25,63,57,53,55,53,50,94,87,75,0.00,40.00,11,5,23,0.00
2012-7-26,64,57,53,56,53,50,95,88,71,0.00,40.00,6,3,14,0.00
2012-7-27,65,59,53,59,55,51,95,85,68,0.00,40.00,7,3,13,0.01
2012-7-28,65,58,51,56,53,49,95,84,67,0.00,40.00,10,4,19,0.01
2012-7-29,66,59,53,55,53,50,92,82,65,0.00,40.00,10,5,19,0.00
2012-7-30,66,58,48,56,52,46,95,81,63,0.00,40.00,12,6,24,0.00
2012-7-31,65,58,50,56,51,47,95,78,60,0.00,40.00,17,8,27,0.00
2012-8-1,65,56,48,54,50,46,95,82,63,0.00,40.00,16,7,28,0.00
2012-8-2,64,60,53,55,53,48,95,78,66,0.00,40.00,16,11,31,0.00
2012-8-3,60,55,52,57,52,49,96,90,75,0.00,40.00,12,6,22,0.00
2012-8-4,76,59,51,61,52,49,97,80,47,0.00,40.00,10,4,19,0.00
2012-8-5,67,59,53,63,55,51,96,88,70,0.00,40.00,10,5,18,0.00
2012-8-6,65,60,56,57,54,52,94,83,68,0.00,40.00,7,4,14,0.00
2012-8-7,67,61,56,54,52,50,85,73,58,0.00,40.00,6,2,12,0.00
2012-8-8,69,62,57,56,53,50,91,74,58,0.00,40.00,11,4,20,0.00
2012-8-9,67,60,52,58,54,49,95,83,68,0.00,40.00,16,8,31,0.00
2012-8-10,65,59,53,55,52,50,90,79,68,0.00,40.00,18,11,36,0.00
2012-8-11,60,54,49,54,50,-100,96,90,75,0.00,40.00,17,7,29,0.00
2012-8-12,61,54,49,55,52,48,97,92,77,0.00,40.00,16,6,29,0.00
2012-8-14,62,53,47,47,-14,-100,71,30,1,0.00,40.00,17,5,32,0.01
2012-8-15,60,53,50,43,29,18,64,41,26,0.00,40.00,12,4,22,0.01
2012-8-16,62,58,51,34,-35,-100,37,10,5,0.00,40.00,11,5,18,0.00
2012-8-17,61,55,49,33,16,-16,41,24,4,0.00,40.00,6,2,11,0.00
2012-8-18,62,57,53,45,27,12,67,35,14,0.00,40.00,5,2,11,0.00
2012-8-19,65,58,50,45,34,-8,67,48,5,0.00,40.00,6,2,12,0.00
2012-8-20,65,58,47,50,40,25,71,54,22,0.00,40.00,12,6,21,0.00
2012-8-21,67,59,51,49,44,29,74,59,27,0.00,40.00,13,6,25,0.00
2012-8-22,70,59,51,47,44,35,75,59,30,0.00,40.00,16,7,32,0.00
2012-8-23,69,58,50,47,42,33,78,57,30,0.00,40.00,18,8,34,0.00
2012-8-24,69,55,44,47,42,36,81,65,30,0.00,40.00,22,8,41,0.00
2012-8-25,65,54,44,51,45,40,86,71,52,0.00,40.00,6,2,15,0.00
2012-8-26,68,58,53,51,48,44,83,73,42,0.00,40.00,13,7,23,0.16
2012-8-27,67,59,53,51,49,47,84,70,52,0.00,40.00,10,3,20,0.04
2012-8-28,68,58,51,50,47,43,81,66,41,0.00,40.00,6,2,12,0.00
2012-8-29,66,60,52,51,47,40,79,63,40,0.00,40.00,11,4,21,0.00
2012-8-30,65,57,49,46,42,35,77,57,38,0.00,40.00,14,7,29,0.00
2012-8-31,64,56,46,44,38,29,73,54,28,0.00,40.00,14,6,29,0.00
2012-9-1,66,55,44,41,36,29,71,51,27,0.00,40.00,14,6,28,0.00
2012-9-2,65,56,45,44,37,26,71,51,24,0.00,40.00,14,6,26,0.00
2012-9-3,68,56,48,43,40,35,71,56,30,0.00,40.00,18,7,36,0.00
2012-9-4,59,53,48,44,37,28,66,54,36,0.00,40.00,18,7,33,0.00
2012-9-5,60,54,49,41,34,26,58,48,32,0.00,40.00,12,5,24,0.00
2012-9-6,62,55,51,38,35,33,57,47,35,0.00,40.00,6,2,13,0.00
2012-9-7,62,55,51,41,34,28,59,45,31,0.00,40.00,6,2,11,0.00
2012-10-13,58,57,56,58,57,56,99,99,99,0.00,40.00,9,3,15,0.52
2012-10-14,61,58,55,60,57,55,99,97,91,0.00,40.00,15,8,32,0.84
2012-10-15,63,58,56,61,58,56,99,98,90,0.00,40.00,20,13,41,3.07
2012-10-16,62,55,46,58,52,45,99,88,57,0.00,40.00,15,3,30,1.30
2012-10-17,63,51,44,48,45,43,97,81,53,0.00,40.00,9,2,15,0.01
2012-10-18,74,54,46,48,44,41,93,69,38,0.00,40.00,6,2,21,0.01
2012-10-19,55,54,52,55,52,43,99,92,70,0.00,40.00,15,8,30,0.74
2012-10-20,58,50,45,55,46,42,99,87,61,0.00,40.00,10,3,17,0.49
2012-10-21,55,48,44,47,44,42,96,87,64,0.00,40.00,8,4,14,1.44
2012-10-22,52,47,43,46,43,39,95,86,66,0.00,40.00,10,5,23,0.98
2012-10-23,48,44,41,44,41,38,95,87,76,0.00,40.00,10,7,21,0.49
2012-10-24,54,46,42,43,41,38,92,82,65,0.00,40.00,11,7,20,0.22
2012-10-25,61,47,38,44,40,36,95,78,48,0.00,40.00,4,2,11,0.01
2012-10-26,57,53,48,52,47,40,93,82,69,0.00,40.00,13,7,23,0.00
2012-10-27,60,55,52,60,54,50,99,97,88,0.00,40.00,17,12,31,0.66
2012-10-28,62,58,55,60,58,55,99,98,86,0.00,40.00,15,12,29,1.45
2012-10-29,62,58,55,59,57,54,99,97,82,0.00,40.00,18,9,33,0.23
2012-10-30,62,58,55,60,57,54,99,94,83,0.00,40.00,17,9,35,0.22
2012-10-31,58,56,53,57,53,49,98,92,83,0.00,40.00,18,6,35,1.19
2012-11-1,57,55,50,55,52,48,98,91,76,0.00,40.00,22,12,43,0.89
2012-11-2,61,53,48,53,50,47,98,90,68,0.00,40.00,4,1,18,0.14
2012-11-3,58,56,53,57,55,52,98,98,95,0.00,40.00,14,6,27,0.25
2012-11-4,67,60,56,62,58,55,99,92,73,0.00,40.00,9,2,15,0.01
2012-11-5,63,58,55,60,56,54,99,96,81,0.00,40.00,7,2,13,0.00
2012-11-6,59,56,52,56,54,50,98,95,86,0.00,40.00,7,2,15,0.01
2012-11-7,60,49,41,50,44,40,98,87,54,0.00,40.00,6,1,17,0.01
2012-11-8,50,44,41,44,41,39,96,91,75,0.00,40.00,8,3,16,0.66
2012-11-9,48,42,38,42,40,36,95,91,76,0.00,40.00,7,3,14,0.37
2012-11-10,54,42,34,44,38,33,96,84,61,0.00,40.00,5,2,9,0.01
2012-11-11,50,46,42,44,40,36,86,78,72,0.00,40.00,10,7,19,0.07
2012-11-12,54,51,48,52,49,42,97,92,75,0.00,40.00,18,7,33,0.70
2012-11-13,57,51,48,52,49,47,98,93,81,0.00,40.00,9,2,17,0.03
2012-11-14,61,50,43,50,45,-100,97,87,65,0.00,40.00,6,1,11,0.00
2012-11-15,58,48,41,46,43,40,97,85,61,0.00,40.00,4,1,9,0.00
2012-11-16,59,51,41,51,46,39,97,82,63,0.00,40.00,10,2,23,0.00
2012-11-17,54,49,44,51,45,40,96,88,73,0.00,40.00,16,8,32,1.24
2012-11-18,53,49,46,50,46,42,90,87,80,0.00,40.00,23,12,34,0.99
2012-11-19,59,55,52,56,52,50,98,88,79,0.00,40.00,28,18,56,3.01
2012-11-20,56,52,48,53,48,41,96,87,69,0.00,40.00,21,10,35,1.15
2012-11-21,54,48,39,46,40,36,95,77,54,0.00,40.00,15,5,35,0.46
2012-11-22,55,45,39,44,40,37,95,84,65,0.00,40.00,3,1,9,0.04
2012-11-23,59,51,41,53,46,39,98,82,63,0.00,40.00,15,7,29,1.25
2012-11-24,53,49,42,52,47,41,98,94,84,0.00,40.00,8,1,18,1.77
2012-11-25,53,44,39,42,39,35,96,84,62,0.00,40.00,4,1,12,0.01
2012-11-26,39,38,37,36,35,35,91,88,84,0.00,40.00,5,2,12,0.01
2012-11-27,54,48,44,46,42,39,85,79,66,0.00,40.00,5,2,13,0.00
2012-11-28,59,50,42,50,42,36,85,74,58,0.00,40.00,16,7,30,0.05
2012-11-29,56,51,48,49,46,40,91,83,57,0.00,40.00,12,7,35,1.01
2012-11-30,59,55,52,52,49,45,92,80,69,0.00,40.00,21,17,43,0.55
2012-12-1,53,52,49,50,47,43,93,85,74,0.00,40.00,17,10,37,1.24
2012-12-2,53,50,46,50,44,38,96,80,64,0.00,40.00,14,8,29,1.47
2012-12-3,55,51,47,48,45,43,91,81,65,0.00,40.00,13,9,25,0.40
2012-12-4,57,54,47,55,51,45,97,92,75,0.00,40.00,25,15,57,0.84
2012-12-5,55,47,38,46,40,34,94,78,52,0.00,40.00,5,1,11,0.26
2012-12-6,51,42,37,45,38,-100,95,89,76,0.00,40.00,9,4,17,0.30
2012-12-7,52,47,43,47,44,41,95,89,72,0.00,40.00,8,4,16,0.36
2012-12-8,43,41,39,42,40,38,95,94,93,0.00,40.00,0,0,4,0.05
2012-12-9,51,45,42,46,43,40,95,90,80,0.00,40.00,3,1,9,0.02
2012-12-10,52,49,46,48,46,43,94,88,85,0.00,40.00,2,0,9,0.02
2012-12-11,48,45,40,46,41,34,96,85,62,0.00,40.00,11,5,22,0.50
2012-12-12,47,42,38,43,39,35,94,87,67,0.00,40.00,9,4,18,0.30
2012-12-13,48,40,36,40,37,35,95,89,72,0.00,40.00,5,2,13,0.02
2012-12-14,51,42,34,42,37,32,94,85,56,0.00,40.00,9,3,18,0.39
2012-12-15,47,42,36,44,37,33,93,82,64,0.00,40.00,21,6,41,0.54
2012-12-16,53,48,44,52,42,34,96,83,61,0.00,40.00,26,12,53,0.79
2012-12-17,51,45,36,42,34,27,89,66,47,0.00,40.00,15,8,43,0.33
2012-12-18,48,39,35,38,33,29,91,81,56,0.00,40.00,9,6,25,0.31
2012-12-19,50,44,37,42,37,33,85,78,59,0.00,40.00,22,14,53,0.50
2012-12-20,47,39,36,43,36,33,91,89,82,0.00,40.00,16,8,31,3.34
2012-12-21,46,42,39,41,38,35,90,84,74,0.00,40.00,9,6,20,0.46
2012-12-22,45,41,39,40,37,35,91,86,78,0.00,40.00,13,8,30,1.07
2012-12-23,45,42,39,41,37,34,91,84,72,0.00,40.00,10,4,21,0.55
2012-12-24,48,44,40,42,39,35,91,83,74,0.00,40.00,7,4,17,0.15
2012-12-25,50,45,40,47,41,33,93,85,68,0.00,40.00,15,7,27,0.68
2012-12-26,49,45,43,44,41,35,94,86,73,0.00,40.00,9,5,21,0.63
2012-12-27,48,43,39,42,39,37,93,87,78,0.00,40.00,6,2,10,0.28
2012-12-28,47,42,39,41,37,35,88,82,76,0.00,40.00,3,1,9,0.08
2012-12-29,48,40,35,38,35,32,92,83,65,0.00,40.00,3,1,9,0.00
2012-12-30,48,38,33,36,33,29,91,83,63,0.00,40.00,6,2,16,0.00
2012-12-31,47,40,35,43,36,31,90,84,69,0.00,40.00,5,2,11,0.03
2013-1-1,46,38,33,37,31,28,89,76,56,0.00,40.00,8,4,21,0.03